[[{"header":{"parameterUnit":"m.s-1","parameterCategory":1,"la1":30.2991,"la2":30.254,"lo1":-89.0895,"lo2":-89.0444,"dy":0.0017,"dx":0.0017,"nx":28,"ny":28,"refTime":"2025-08-14T21:00:00:Z","depth":0,"parameterNumber":2,"parameterNumberName":"U-component_of_WINDS"},"data":[0,0,0,0,0,0,0,0,0,0,0,0,0,0,0,0,0,0,0,0,0,0,0,0,0,0,0,0,0,0,0,0,0,0,0,0,0,0,0,0,0,0,0,0,0,0,0,0,0,0,0,0,0,0,0,0,0,0,1.1602,1.1602,0,1.1598,1.1598,1.1598,1.1543,1.1541,1.154,1.1538,1.1535,1.1536,1.1538,0,0,0,0,0,0,0,0,0,0,0,0,0,1.1565,1.1566,1.1602,1.1602,1.1602,1.1598,1.1598,1.1598,1.1543,1.1541,1.1539,1.1538,1.1535,1.1536,1.1538,0,0,0,0,0,0,0,0,0,0,0,0,0,1.1573,1.1566,1.1603,1.1574,1.1572,1.1598,1.1598,1.1598,1.1543,1.1541,1.1539,1.1537,1.1534,1.1536,1.1538,1.1592,0,0,1.1544,1.1544,0,0,0,0,0,0,0,0,1.1573,1.1575,1.1578,1.1576,1.1573,1.1569,1.1584,1.1596,1.1544,1.1554,1.1538,1.1536,1.1548,1.1549,1.1553,1.1591,1.1591,1.1544,1.1545,1.1546,1.1546,0,0,0,0,0,0,0,1.1572,1.1575,1.1601,1.1579,1.1576,1.1563,1.1562,1.1586,1.1563,1.1553,1.1549,1.1549,1.1546,1.1551,1.1552,1.1591,1.1544,1.1545,1.1546,1.1547,1.1677,1.1679,0,0,0,0,0,0,1.1576,1.1575,1.1601,1.1601,1.1568,1.1565,1.1564,1.1572,1.1563,1.1559,1.1551,1.1547,1.1549,1.155,1.1552,1.1616,1.1546,1.1547,1.1548,1.1675,1.1677,1.168,0,0,0,0,0,0,1.1575,1.1578,1.1601,1.1587,1.1588,1.1568,1.1578,1.1573,1.1578,1.1561,1.1557,1.156,1.1547,1.1549,1.1583,1.1615,1.1548,1.155,1.1672,1.1675,1.1679,1.1743,0,0,0,0,0,0,1.1574,1.1578,1.1598,1.1587,1.1589,1.1631,1.158,1.1575,1.1581,1.1575,1.1568,1.1565,1.1546,1.158,1.1585,1.1616,1.1551,1.1669,1.1673,1.1678,1.1738,1.1748,1.1757,0,0,0,0,0,1.1573,1.1616,1.1599,1.1603,1.1613,1.1633,1.1635,1.1611,1.1584,1.1604,1.1594,1.1565,1.1611,1.1584,1.1589,1.1621,1.1667,1.1672,1.1677,1.1734,1.1746,1.1757,0,0,0,0,0,0,1.163,1.1614,1.1595,1.1636,1.1636,1.1624,1.1648,1.1625,1.1634,1.1628,1.1599,1.1598,1.1637,1.1632,1.1603,1.1674,1.1634,1.164,1.1675,1.1687,1.1697,1.1697,1.1553,0,0,0,0,0,1.1648,1.1665,1.165,1.1687,1.1688,1.1669,1.1676,1.1659,1.1658,1.1658,1.165,1.1652,1.1666,1.1676,1.1689,1.1737,1.1736,1.1762,1.1772,1.178,1.1786,1.1813,1.1825,1.1697,1.1697,1.1697,0,0,1.1683,1.1677,1.1689,1.1698,1.1697,1.1717,1.1669,1.1691,1.1706,1.1662,1.1693,1.1688,1.1687,1.1729,1.1747,1.1727,1.1821,1.1786,1.1793,1.1795,1.182,1.1832,1.1843,1.1701,1.17,1.17,0,0,1.1759,1.1755,1.1787,1.1787,1.1785,1.1772,1.178,1.1772,1.1767,1.1798,1.1766,1.1783,1.1809,1.181,1.1815,1.1894,1.1869,1.1899,1.195,1.1977,1.1987,1.1996,1.2026,1.2037,1.1905,1.1905,1.1906,0,1.1804,1.1831,1.1806,1.1831,1.1837,1.1799,1.1832,1.1833,1.1836,1.1841,1.1818,1.1851,1.1848,1.1891,1.1911,1.1915,1.1924,1.19,1.1987,1.1996,1.2004,1.2032,1.2043,1.1909,1.1909,1.1908,1.1908,0,1.1888,1.1908,1.1934,1.1938,1.1947,1.1976,1.1956,1.1968,1.1951,1.194,1.1974,1.1969,1.1981,1.199,1.1972,1.2031,1.2019,1.1992,1.1951,1.202,1.2046,1.2057,1.1915,1.1913,1.1912,1.1911,0,0,1.1998,1.199,1.2,1.2002,1.1999,1.2015,1.2043,1.2055,1.2067,1.2071,1.2094,1.2118,1.2094,1.2099,1.2082,1.2106,1.2171,1.2076,1.2076,1.2095,1.2238,1.2259,1.2272,1.2155,1.2157,1.2158,1.2239,0,1.2072,1.2119,1.2098,1.2148,1.2167,1.2132,1.2157,1.2159,1.2151,1.2167,1.2158,1.2176,1.2142,1.2145,1.2167,1.2159,1.22,1.2153,1.2178,1.2179,1.218,1.2285,1.2306,1.2382,1.2249,1.225,1.2251,0,1.2164,1.2173,1.2225,1.2221,1.2228,1.225,1.2261,1.2276,1.2278,1.2271,1.2278,1.2256,1.2285,1.2245,1.2285,1.2253,1.2263,1.226,1.2263,1.2265,1.222,1.2291,1.2406,1.2418,1.2267,1.2266,1.2265,0,1.2241,1.2266,1.2301,1.2304,1.2299,1.2316,1.2316,1.2315,1.2325,1.2334,1.234,1.2353,1.2361,1.2372,1.2354,1.2326,1.2398,1.2355,1.2394,1.2394,1.241,1.241,1.2529,1.2415,1.2415,1.2415,1.2415,0,1.2326,1.236,1.2336,1.2357,1.2394,1.2371,1.2409,1.2404,1.2405,1.2426,1.2396,1.2417,1.2392,1.2411,1.2398,1.2434,1.2437,1.2433,1.243,1.2436,1.2437,1.2442,1.2437,1.2418,1.2417,1.2417,1.2416,0,1.2418,1.2403,1.2439,1.2433,1.2432,1.246,1.2455,1.2475,1.2466,1.2493,1.2498,1.2484,1.2504,1.2489,1.2508,1.25,1.2548,1.2537,1.2548,1.2545,1.2585,1.2582,1.2712,1.2729,1.2604,1.2605,1.2606,0,1.2474,1.2499,1.2496,1.2508,1.2509,1.2529,1.2539,1.2517,1.2529,1.2535,1.2555,1.2573,1.2587,1.2622,1.2614,1.2629,1.2619,1.2663,1.2621,1.2628,1.2621,1.262,1.2623,1.2672,1.2674,1.2675,1.2676,0,1.2575,1.2567,1.2582,1.2596,1.2609,1.2618,1.2625,1.2637,1.2616,1.263,1.2651,1.2662,1.2684,1.2703,1.2716,1.2716,1.2693,1.269,1.2699,1.2707,1.2713,1.2712,1.2572,1.2686,1.2685,1.2685,1.2684,1.2684,1.2651,1.2673,1.2675,1.2694,1.2697,1.2705,1.2725,1.2718,1.2736,1.2751,1.2738,1.2764,1.2768,1.2783,1.2786,1.2807,1.2789,1.2803,1.2806,1.281,1.2817,1.2709,1.2809,1.2809,1.2809,1.2808,1.2808,0,1.2752,1.2752,1.277,1.2781,1.2797,1.2774,1.2781,1.2796,1.2819,1.2824,1.2839,1.2864,1.2883,1.2877,1.2895,1.2913,1.2903,1.2918,1.2917,1.2918,1.2831,1.2822,1.2926,1.2926,1.2926,1.2926,1.2926,1.2926,1.2806,1.2842,1.2835,1.2873,1.2873,1.2898,1.2905,1.2913,1.2917,1.2947,1.2963,1.2959,1.2961,1.2978,1.2996,1.2993,1.3002,1.3021,1.3016,1.2935,1.2923,1.2912,1.2903,1.3023,1.3023,1.31,1.3101,1.3101]},{"header":{"parameterUnit":"m.s-1","parameterCategory":1,"la1":30.2991,"la2":30.254,"lo1":-89.0895,"lo2":-89.0444,"dy":0.0017,"dx":0.0017,"nx":28,"ny":28,"refTime":"2025-08-14T21:00:00:Z","depth":0,"parameterNumber":3,"parameterNumberName":"V-component_of_WINDS"},"data":[0,0,0,0,0,0,0,0,0,0,0,0,0,0,0,0,0,0,0,0,0,0,0,0,0,0,0,0,0,0,0,0,0,0,0,0,0,0,0,0,0,0,0,0,0,0,0,0,0,0,0,0,0,0,0,0,0,0,-1.8542,-1.8542,0,-1.8519,-1.8518,-1.8518,-1.8516,-1.8517,-1.8517,-1.8517,-1.8492,-1.8491,-1.849,0,0,0,0,0,0,0,0,0,0,0,0,0,-1.8588,-1.8587,-1.8542,-1.8542,-1.8542,-1.8519,-1.8518,-1.8518,-1.8516,-1.8517,-1.8517,-1.8517,-1.8492,-1.8491,-1.849,0,0,0,0,0,0,0,0,0,0,0,0,0,-1.8566,-1.8586,-1.8542,-1.8538,-1.8538,-1.8519,-1.8518,-1.8518,-1.8516,-1.8517,-1.8517,-1.8518,-1.8493,-1.8491,-1.849,-1.8473,0,0,-1.8486,-1.8485,0,0,0,0,0,0,0,0,-1.8567,-1.8565,-1.8539,-1.8538,-1.8538,-1.8521,-1.8525,-1.8503,-1.8516,-1.8524,-1.8517,-1.8518,-1.8501,-1.8499,-1.8494,-1.8472,-1.8471,-1.8485,-1.8485,-1.8484,-1.8484,0,0,0,0,0,0,0,-1.8569,-1.8566,-1.8533,-1.8539,-1.8538,-1.8538,-1.8535,-1.8521,-1.8511,-1.8524,-1.8523,-1.8521,-1.8501,-1.8495,-1.8493,-1.8471,-1.8486,-1.8484,-1.8483,-1.8483,-1.8438,-1.8437,0,0,0,0,0,0,-1.8571,-1.8567,-1.8534,-1.8532,-1.8554,-1.8537,-1.8534,-1.8526,-1.8511,-1.8509,-1.852,-1.8521,-1.8497,-1.8495,-1.8492,-1.8474,-1.8484,-1.8483,-1.8482,-1.8438,-1.8438,-1.8437,0,0,0,0,0,0,-1.8572,-1.8568,-1.8535,-1.855,-1.8545,-1.8536,-1.8527,-1.8525,-1.8519,-1.8509,-1.8507,-1.8516,-1.8497,-1.8494,-1.8479,-1.8473,-1.8482,-1.8481,-1.8438,-1.8438,-1.8437,-1.8435,0,0,0,0,0,0,-1.8573,-1.8569,-1.8561,-1.8549,-1.8544,-1.8521,-1.8526,-1.8524,-1.8517,-1.8517,-1.8504,-1.8502,-1.8498,-1.8481,-1.8477,-1.8471,-1.848,-1.8439,-1.8438,-1.8438,-1.8436,-1.8435,-1.8434,0,0,0,0,0,-1.8575,-1.8561,-1.8561,-1.8557,-1.8535,-1.8521,-1.8518,-1.8513,-1.8517,-1.851,-1.8504,-1.8503,-1.8474,-1.8479,-1.8475,-1.8468,-1.8439,-1.8438,-1.8438,-1.8436,-1.8435,-1.8434,0,0,0,0,0,0,-1.8571,-1.8559,-1.8559,-1.8541,-1.8532,-1.852,-1.8511,-1.8511,-1.8501,-1.8501,-1.8495,-1.8493,-1.8478,-1.8472,-1.8478,-1.8453,-1.8457,-1.8456,-1.8458,-1.8456,-1.8455,-1.8457,-1.8479,0,0,0,0,0,-1.8568,-1.8557,-1.8547,-1.8532,-1.8528,-1.8521,-1.8514,-1.8511,-1.8502,-1.8498,-1.849,-1.8481,-1.847,-1.8463,-1.8452,-1.8435,-1.8434,-1.8429,-1.8428,-1.8427,-1.8426,-1.8419,-1.8417,-1.8434,-1.8434,-1.8434,0,0,-1.8562,-1.8554,-1.8547,-1.8531,-1.8524,-1.8514,-1.8517,-1.8505,-1.8497,-1.8496,-1.8481,-1.8476,-1.8465,-1.845,-1.8443,-1.8444,-1.8421,-1.8426,-1.8426,-1.8424,-1.8418,-1.8416,-1.8415,-1.8434,-1.8434,-1.8434,0,0,-1.8545,-1.8537,-1.8525,-1.8519,-1.8509,-1.8504,-1.8502,-1.8491,-1.8488,-1.8473,-1.8473,-1.8464,-1.8445,-1.8438,-1.8432,-1.8417,-1.8417,-1.8414,-1.8408,-1.8402,-1.84,-1.8399,-1.8395,-1.8394,-1.8413,-1.8413,-1.8413,0,-1.8538,-1.8522,-1.8519,-1.8507,-1.8501,-1.8501,-1.8489,-1.8483,-1.847,-1.8466,-1.8468,-1.8447,-1.8439,-1.8424,-1.842,-1.8415,-1.8413,-1.8415,-1.8401,-1.84,-1.8399,-1.8395,-1.8393,-1.8412,-1.8413,-1.8413,-1.8413,0,-1.8515,-1.8504,-1.8495,-1.8484,-1.8477,-1.8466,-1.8462,-1.8455,-1.8454,-1.845,-1.8437,-1.8429,-1.8418,-1.8414,-1.8412,-1.8399,-1.8401,-1.8402,-1.8406,-1.8397,-1.8393,-1.8391,-1.8412,-1.8412,-1.8412,-1.8412,0,0,-1.8492,-1.8482,-1.8479,-1.8475,-1.8466,-1.8457,-1.8447,-1.8437,-1.8433,-1.8424,-1.8416,-1.8402,-1.8404,-1.8398,-1.8396,-1.839,-1.8381,-1.8392,-1.8392,-1.8391,-1.8368,-1.8367,-1.8365,-1.8381,-1.8381,-1.838,-1.8369,0,-1.8475,-1.8456,-1.8455,-1.8439,-1.843,-1.8431,-1.8423,-1.8417,-1.8414,-1.8406,-1.8403,-1.8393,-1.8396,-1.8393,-1.8387,-1.8383,-1.8376,-1.8384,-1.8374,-1.8374,-1.8377,-1.8363,-1.8361,-1.8351,-1.8368,-1.8367,-1.8367,0,-1.8451,-1.8444,-1.8428,-1.8423,-1.8419,-1.8411,-1.8403,-1.8396,-1.839,-1.8388,-1.8383,-1.8383,-1.8373,-1.8379,-1.8366,-1.8372,-1.8368,-1.8366,-1.8366,-1.8364,-1.837,-1.8362,-1.8347,-1.8346,-1.8365,-1.8365,-1.8365,0,-1.8438,-1.8424,-1.8413,-1.841,-1.8403,-1.8398,-1.8395,-1.839,-1.8385,-1.8379,-1.8376,-1.8368,-1.8364,-1.8359,-1.8357,-1.836,-1.8346,-1.835,-1.8345,-1.8345,-1.8341,-1.8341,-1.8326,-1.8338,-1.8338,-1.8338,-1.8338,0,-1.8419,-1.8409,-1.8408,-1.8401,-1.8391,-1.839,-1.838,-1.8377,-1.8373,-1.8366,-1.8367,-1.8361,-1.8359,-1.8353,-1.8351,-1.8343,-1.8341,-1.834,-1.8339,-1.834,-1.834,-1.8337,-1.8337,-1.8338,-1.8338,-1.8338,-1.8338,0,-1.8402,-1.84,-1.8389,-1.8385,-1.8383,-1.8376,-1.8373,-1.8367,-1.8365,-1.8357,-1.8355,-1.8353,-1.8346,-1.8344,-1.8335,-1.8334,-1.8325,-1.8325,-1.8327,-1.8327,-1.8322,-1.8323,-1.8304,-1.8302,-1.8316,-1.8316,-1.8315,0,-1.8389,-1.8382,-1.8378,-1.8374,-1.8372,-1.8365,-1.8361,-1.8361,-1.8357,-1.8351,-1.8347,-1.834,-1.8335,-1.8324,-1.8322,-1.8316,-1.8316,-1.8311,-1.8315,-1.8317,-1.8317,-1.8318,-1.8318,-1.8309,-1.8309,-1.8309,-1.8309,0,-1.8368,-1.8369,-1.8363,-1.8358,-1.8354,-1.835,-1.8346,-1.8342,-1.8342,-1.8338,-1.8332,-1.8328,-1.8321,-1.8315,-1.831,-1.8307,-1.8308,-1.8308,-1.8306,-1.8306,-1.8308,-1.8308,-1.8325,-1.8308,-1.8308,-1.8308,-1.8308,-1.8308,-1.8354,-1.8348,-1.8346,-1.834,-1.8338,-1.8335,-1.833,-1.8329,-1.8324,-1.8318,-1.8319,-1.8312,-1.8309,-1.8303,-1.83,-1.8296,-1.8298,-1.8295,-1.8295,-1.8294,-1.8294,-1.8309,-1.8295,-1.8295,-1.8295,-1.8295,-1.8295,0,-1.8334,-1.8333,-1.8328,-1.8323,-1.832,-1.8323,-1.8319,-1.8316,-1.831,-1.8308,-1.8304,-1.8298,-1.8293,-1.8292,-1.8287,-1.8284,-1.8285,-1.8283,-1.8283,-1.8283,-1.8292,-1.8295,-1.8283,-1.8283,-1.8283,-1.8283,-1.8283,-1.8283,-1.8323,-1.8315,-1.8315,-1.8307,-1.8306,-1.8301,-1.8299,-1.8297,-1.8295,-1.8289,-1.8285,-1.8285,-1.8283,-1.8279,-1.8275,-1.8275,-1.8274,-1.8272,-1.8272,-1.8281,-1.8282,-1.8283,-1.8285,-1.8272,-1.8271,-1.8263,-1.8263,-1.8263]}]]